Location: Unspecified
(41.5000°N, 0.0000°E)
Time: 15:27:23
(UTC+00:00)

Vanguard 2 - Pass Details

Date: 28 June 2019
Orbit: 553 x 2938 km, 32.9° (Epoch: 21 July)

Event Time Altitude Azimuth Distance (km) Brightness Sun altitude
Rises 09:38:04 0° 260° (W) 3,123 10.4 54.7°
Reaches altitude 10° 09:40:17 10° 251° (WSW) 2,387 9.9 55.1°
Maximum altitude 09:45:20 34° 186° (S) 1,661 9.9 56.0°
Drops below altitude 10° 09:53:01 10° 126° (SE) 3,677 11.7 57.3°
Sets 09:57:18 0° 119° (ESE) 5,096 12.2 58.1°
